Location: Unspecified
(48.7670°N, 0.0000°E)
Time: 08:13:17
(UTC+00:00)

Vanguard 2 Rocket - Pass Details

Date: 17 June 2019
Orbit: 554 x 3326 km, 32.9° (Epoch: 19 July)

Event Time Altitude Azimuth Distance (km) Brightness Sun altitude
Rises 02:22:17 0° 261° (W) 5,838 10.6 -11.3°
Reaches altitude 10° 02:25:55 10° 255° (WSW) 5,153 10.3 -10.9°
Maximum altitude 02:40:47 44° 191° (S) 3,944 9.7 -9.5°
Drops below altitude 10° 02:58:59 10° 129° (SE) 6,207 11.2 -7.6°
Sets 03:03:56 0° 123° (ESE) 7,081 11.6 -7.1°
